User: anonymous   Login
Location: Vancouver
(49.2500°N, 123.1330°W)
Time: 02:48:00
(UTC-07:00)
Language:

Cosmos 676 Rocket - Orbit

View from above orbital plane
View from above orbital plane
View from above satellite
View from above satellite

Ground track
Ground track

The orbit data is extracted from the following two-line orbital elements,

1 07434U 74071B   15109.79789632  .00000356  00000-0  13003-3 0  9998
2 07434 074.0480 223.5105 0021438 326.8356 033.1452 14.36452247123352
Epoch (UTC): 19 April 2015 19:08:58
Eccentricity: 0.0021438
inclination: 74.0480°
perigee height: 755 km
apogee height: 785 km
right ascension of ascending node: 223.5105°
argument of perigee: 326.8356°
revolutions per day: 14.36452247
mean anomaly at epoch: 33.1452°
orbit number at epoch: 12335

The dashed part of the orbit path shows where the satellite is in the earth's shadow,  

DLR